Wind_Speed
11 13 15 18 21 23 25 27 28 30 31 33 34 37 38 38 39 40 39 38 38 37 37 36 35 34 33 32 31 30 29 29 28 27 26 26 25 24
10 13 15 17 19 21 24 26 28 29 31 33 35 36 37 39 39 40 40 40 40 40 39 39 38 37 36 36 34 34 33 32 31 30 29 29 28 27
9 11 14 16 17 19 21 24 26 28 30 32 34 35 37 38 39 40 41 42 42 41 41 41 40 40 39 38 37 37 36 35 35 34 33 32 31 30
10 11 12 14 16 17 19 22 24 26 27 30 32 34 36 37 39 40 41 42 42 42 42 42 43 42 42 41 40 39 38 38 37 36 36 35 34 33
10 10 10 12 13 15 17 19 21 23 25 28 30 32 34 35 37 39 40 41 42 42 42 42 43 44 44 42 42 42 41 41 40 39 39 38 38 37
9 9 9 10 11 13 15 16 18 19 21 24 27 30 32 33 34 36 38 40 41 42 43 43 43 44 44 44 44 43 43 43 42 42 41 41 41 40
9 8 8 8 9 11 13 14 15 16 18 20 22 25 29 31 32 33 35 36 38 39 40 42 43 44 44 44 44 44 44 44 44 43 42 42 42 42
10 9 8 8 9 10 11 13 14 16 17 18 20 22 25 28 30 31 33 34 35 37 39 40 42 43 45 45 45 45 45 45 44 44 44 43 43 43
10 10 8 9 10 10 11 13 15 16 17 18 20 21 23 26 29 31 32 33 34 36 37 38 40 41 43 45 45 46 46 46 47 46 46 45 44 44
11 10 10 9 9 10 11 12 14 15 17 17 18 20 22 24 26 29 31 33 35 37 38 38 39 40 41 43 45 46 46 47 47 47 47 47 46 46
12 12 11 11 11 11 12 12 14 15 17 17 18 18 20 22 25 27 29 31 32 34 37 38 39 40 41 42 44 45 46 47 48 49 50 50 48 47
14 13 13 12 12 13 13 13 14 15 17 17 18 19 19 21 23 25 27 29 31 33 36 38 39 40 40 41 43 44 46 47 48 48 49 49 50 49
15 15 14 14 14 14 14 15 15 16 17 18 19 20 20 21 22 24 25 26 29 31 33 35 37 38 39 40 41 42 42 44 46 47 47 48 49 49
17 16 16 15 16 16 16 16 17 17 18 19 19 20 21 22 23 24 25 26 27 29 31 33 34 36 38 39 40 42 42 43 43 45 45 46 48 48
18 17 17 17 17 17 18 18 19 19 19 20 21 22 23 23 24 25 26 27 28 29 31 33 34 35 36 38 39 40 41 43 43 43 44 44 45 46
19 19 19 19 20 20 20 20 21 22 22 22 23 24 25 25 26 27 28 29 30 31 33 34 34 35 36 38 39 40 41 42 44 44 43 43 43 44
21 21 21 21 22 22 22 23 24 24 24 25 25 26 26 27 28 28 29 30 31 32 33 35 36 37 37 38 39 40 41 41 42 43 43 43 42 42
23 23 23 23 24 24 24 25 26 26 26 27 28 28 29 29 30 31 32 32 33 34 35 36 37 38 38 39 39 40 40 42 43 44 44 44 44 44
25 25 26 26 26 26 27 27 27 28 29 30 30 31 32 32 33 34 34 35 36 36 37 38 39 40 40 39 40 41 41 42 42 43 44 45 44 44
28 28 28 28 28 29 29 29 30 31 32 32 33 34 34 35 36 36 37 38 38 39 40 40 41 42 42 42 42 42 43 43 43 43 44 45 44 44
30 30 30 30 31 31 32 32 33 33 34 35 35 36 36 37 38 39 40 40 41 41 41 41 42 43 44 44 44 43 43 45 45 45 44 45 44 43
31 32 32 33 33 34 34 35 35 36 36 36 37 38 39 40 41 42 42 43 43 43 43 43 44 44 45 45 45 45 44 45 46 46 46 46 45 44
33 34 34 35 36 36 37 37 37 38 38 39 40 41 42 43 43 44 44 45 45 46 46 46 46 47 48 48 48 47 47 46 47 47 47 47 47 46
Wind_Direction
257 250 244 238 236 236 236 237 239 239 236 234 232 232 232 232 231 231 231 231 232 233 233 234 235 235 235 236 237 239 241 242 243 245 246 248 250 253
267 257 251 246 243 240 239 239 240 241 239 237 235 234 234 233 233 232 232 233 233 234 235 235 236 237 238 238 239 241 242 243 244 245 248 249 251 253
279 266 257 251 248 245 244 241 242 242 240 240 240 238 236 236 236 235 235 235 235 236 237 237 238 239 240 240 242 243 243 244 245 247 248 249 251 254
288 276 265 255 252 248 246 245 244 243 243 242 242 241 240 239 238 237 238 238 238 239 239 239 239 241 241 242 243 244 245 246 246 247 248 250 252 254
296 284 272 261 255 252 248 247 247 246 246 245 243 242 241 240 239 238 238 238 240 240 240 240 240 240 241 243 244 245 245 246 247 248 249 251 252 254
307 293 279 267 259 255 252 250 249 248 248 247 246 244 243 241 239 238 239 239 239 240 241 242 241 241 241 243 245 245 246 247 248 249 250 252 253 254
315 298 287 276 265 259 254 252 251 250 250 248 246 243 242 240 240 239 240 240 240 241 242 242 243 243 243 244 245 247 247 247 247 249 251 252 254 254
321 308 290 281 275 268 262 258 257 256 253 251 249 246 243 242 242 243 242 242 242 242 243 243 244 245 246 246 246 246 246 247 249 250 251 252 253 254
323 316 304 287 278 274 269 265 262 260 259 256 254 251 248 247 246 246 245 245 244 243 244 245 246 247 248 248 247 247 247 248 250 250 251 251 253 255
320 316 307 297 288 283 277 273 270 266 263 261 258 254 253 252 252 250 248 247 247 247 246 247 248 248 249 249 248 248 248 248 249 249 250 251 253 255
313 310 306 300 293 290 287 282 276 271 269 264 262 259 256 254 253 252 250 249 249 248 248 249 250 251 252 251 251 250 250 250 250 250 251 251 252 254
309 306 303 298 294 290 287 286 282 277 274 269 266 265 262 258 255 254 253 252 251 251 252 252 252 253 254 254 253 253 252 251 251 250 250 252 253 254
306 303 299 296 294 292 289 287 285 282 279 276 272 269 267 264 261 258 257 257 255 255 255 254 254 255 254 253 254 254 254 253 253 252 253 254 254 255
304 301 298 296 293 291 290 289 287 285 282 279 277 274 272 268 266 264 261 260 259 258 258 258 257 257 256 254 253 254 254 254 255 255 255 255 255 256
304 301 298 296 294 292 291 288 288 287 284 281 279 277 276 273 270 268 266 264 262 261 261 261 260 259 259 257 255 254 254 254 253 254 255 255 257 256
302 300 298 297 294 292 290 289 288 288 286 284 282 280 278 276 273 271 270 268 266 265 265 263 263 262 261 260 258 257 256 255 256 256 255 256 256 256
300 299 297 296 294 293 291 289 288 288 286 285 283 281 280 278 276 274 272 271 269 268 267 267 266 265 263 261 260 259 258 257 256 256 257 257 257 257
299 298 297 296 295 294 293 291 289 288 287 286 284 283 282 280 279 278 277 275 273 272 270 269 268 266 265 264 262 261 259 258 257 257 258 259 259 259
297 296 296 296 295 294 293 292 291 289 288 287 285 284 283 282 281 280 279 278 276 275 273 271 270 268 266 265 263 263 261 259 259 259 259 259 259 259
296 295 294 294 294 294 293 293 292 291 290 288 286 285 284 283 282 281 280 280 279 277 275 274 272 271 269 266 264 262 262 261 260 260 260 260 260 260
296 295 294 293 293 293 293 293 293 292 291 290 288 287 285 284 283 282 281 280 279 278 276 275 273 272 270 268 266 263 262 262 261 260 260 260 261 261
295 295 294 294 293 293 293 293 293 293 292 290 289 288 287 287 285 284 283 281 280 278 277 275 274 273 271 270 268 266 263 261 261 260 259 259 259 259
296 295 295 294 294 294 294 294 293 293 291 291 290 289 288 288 286 285 284 282 281 279 278 276 274 273 272 271 269 267 263 261 260 260 259 259 258 258
Height
5767 5767 5768 5770 5772 5774 5776 5779 5781 5784 5786 5790 5793 5796 5800 5803 5807 5811 5815 5819 5823 5827 5831 5835 5838 5841 5844 5847 5850 5853 5856 5858 5860 5862 5864 5866 5867 5869
5763 5763 5764 5765 5767 5768 5770 5772 5775 5777 5779 5781 5784 5788 5791 5795 5798 5803 5807 5811 5815 5819 5823 5827 5830 5834 5837 5840 5843 5846 5849 5851 5854 5856 5858 5860 5861 5863
5760 5759 5759 5760 5762 5763 5765 5766 5768 5770 5772 5774 5776 5779 5783 5787 5790 5794 5798 5802 5806 5810 5814 5818 5822 5826 5829 5833 5836 5839 5841 5844 5846 5849 5851 5852 5854 5856
5756 5755 5755 5755 5756 5757 5759 5760 5761 5763 5764 5766 5768 5771 5775 5778 5782 5785 5789 5793 5797 5801 5805 5809 5813 5817 5820 5824 5827 5830 5833 5836 5838 5841 5843 5845 5847 5848
5752 5751 5751 5751 5752 5752 5753 5754 5755 5757 5758 5759 5761 5763 5766 5769 5773 5776 5780 5784 5788 5792 5796 5800 5804 5807 5811 5814 5817 5821 5824 5827 5829 5832 5834 5836 5838 5840
5749 5748 5747 5747 5747 5748 5749 5749 5750 5751 5752 5753 5754 5756 5759 5761 5765 5768 5772 5775 5779 5782 5786 5790 5793 5797 5801 5804 5808 5810 5813 5816 5819 5822 5824 5826 5828 5830
5747 5746 5744 5744 5744 5745 5745 5745 5746 5746 5747 5747 5748 5749 5752 5754 5757 5760 5763 5766 5770 5773 5777 5780 5784 5787 5790 5793 5797 5800 5803 5806 5809 5811 5814 5816 5818 5820
5746 5744 5743 5742 5742 5742 5742 5742 5742 5742 5742 5742 5743 5744 5745 5748 5750 5752 5755 5758 5762 5765 5767 5771 5774 5777 5780 5783 5786 5789 5792 5795 5797 5800 5803 5805 5807 5809
5744 5742 5741 5740 5739 5739 5739 5738 5738 5738 5738 5738 5738 5739 5740 5741 5743 5745 5747 5750 5753 5755 5758 5761 5764 5766 5769 5772 5775 5777 5780 5783 5786 5788 5791 5793 5795 5797
5742 5740 5739 5738 5737 5736 5735 5735 5734 5734 5733 5733 5733 5734 5734 5735 5736 5738 5739 5742 5744 5746 5749 5752 5754 5756 5758 5760 5763 5765 5768 5771 5773 5776 5779 5781 5783 5785
5740 5738 5737 5736 5734 5733 5732 5731 5730 5730 5729 5729 5728 5728 5728 5729 5729 5730 5732 5734 5736 5737 5739 5742 5744 5745 5747 5749 5751 5753 5755 5758 5761 5763 5766 5768 5770 5772
5738 5736 5734 5733 5731 5730 5729 5727 5726 5726 5725 5724 5724 5723 5723 5723 5723 5724 5725 5726 5727 5729 5730 5732 5733 5734 5736 5738 5739 5741 5743 5745 5748 5750 5753 5755 5757 5759
5734 5732 5731 5729 5728 5726 5725 5723 5722 5721 5720 5719 5719 5718 5718 5718 5718 5718 5718 5718 5719 5720 5721 5722 5723 5723 5725 5727 5728 5729 5731 5733 5735 5737 5739 5742 5744 5745
5730 5728 5727 5725 5723 5722 5721 5719 5718 5716 5715 5714 5714 5713 5712 5712 5711 5711 5711 5711 5711 5712 5712 5712 5713 5713 5714 5715 5717 5718 5719 5721 5723 5725 5727 5728 5730 5732
5726 5724 5722 5721 5719 5718 5716 5714 5713 5711 5710 5709 5708 5707 5706 5705 5704 5704 5703 5703 5703 5702 5702 5702 5703 5703 5704 5705 5706 5707 5708 5710 5711 5713 5714 5716 5717 5719
5722 5719 5717 5715 5714 5712 5710 5709 5707 5705 5704 5703 5701 5700 5699 5698 5697 5696 5695 5695 5694 5694 5693 5692 5692 5693 5693 5693 5694 5695 5697 5698 5700 5701 5702 5703 5705 5706
5716 5714 5712 5710 5708 5706 5704 5702 5700 5699 5697 5695 5694 5692 5691 5690 5688 5687 5686 5685 5685 5684 5683 5682 5682 5682 5682 5682 5683 5684 5685 5686 5687 5688 5689 5691 5693 5694
5710 5708 5705 5703 5701 5699 5697 5695 5693 5691 5689 5687 5686 5684 5682 5681 5679 5678 5676 5675 5674 5673 5672 5672 5671 5670 5671 5671 5672 5672 5673 5673 5675 5676 5677 5678 5680 5682
5703 5701 5698 5696 5694 5691 5689 5687 5685 5683 5680 5678 5676 5674 5673 5671 5669 5667 5666 5664 5663 5662 5661 5660 5659 5658 5658 5659 5660 5659 5660 5660 5661 5663 5664 5665 5667 5669
5695 5693 5691 5688 5686 5683 5681 5678 5676 5673 5671 5669 5666 5664 5662 5660 5658 5656 5654 5652 5651 5649 5648 5647 5645 5645 5645 5645 5646 5647 5646 5647 5648 5650 5651 5652 5654 5655
5687 5684 5682 5679 5677 5674 5672 5669 5666 5663 5661 5658 5655 5653 5650 5648 5646 5644 5641 5639 5637 5636 5635 5633 5632 5630 5630 5630 5632 5634 5634 5633 5634 5635 5637 5638 5640 5642
5678 5675 5673 5670 5667 5664 5661 5659 5656 5653 5649 5646 5643 5641 5638 5635 5633 5630 5627 5625 5623 5621 5620 5619 5617 5616 5615 5615 5616 5618 5619 5619 5620 5621 5622 5624 5625 5628
5668 5665 5662 5659 5656 5653 5650 5647 5644 5641 5637 5634 5631 5628 5625 5621 5618 5615 5612 5610 5608 5606 5604 5603 5602 5600 5599 5599 5599 5600 5602 5603 5604 5606 5608 5609 5611 5613